Погода Маслянино

Погода Маслянино : погода сейчас, прогноз погоды и архив. Всё, что Вы хотите узнать о погоде Маслянино!

Хотите узнать прогноз погоды Маслянино? Тогда Вам сюда: Погода Маслянино

Поиск расширенной информации на нашем сайте:

Другие новости

Новости СМИ2

Главная страница сайта

Новости сайта

02.10.2013

Напоминаем, что на нашем новом сайте вы можете получить высокодетализированные прогнозы погоды по пунктам России, СНГ и мира (включающие важные для авиации метеовеличины, такие как направление и скорость ветра, видимость, явления погоды, количество и форма облачности, нижняя и верхняя граница облачности), а также ознакомиться с разнообразными материалами по авиационной метеорологии и подборкой полезных ссылок на эту тему.

Сайт Метеоцентр.Азия посвящён разработке технологий оптимизации авиаметеорологического обслуживания, включая проектирование и перспективное создание нескольких автоматизированных авиаметеорологических систем:
- система выпуска высокодетальных прогностических карт явлений погоды для нижнего воздушного пространства по России и ближнему зарубежью;
- система верификации прогнозов TAF (выпускаемых синоптиками официальных АМСГ РФ и ближнего зарубежья) и AUTOTAF (выпускаемых сайтом Метеоцентр.Азия) - выявление ошибок, онлайн-сопоставление с фактической погодой METAR, автоматическое внесение коррективов в прогнозы при резком отклонении фактической погоды от прогноза, подсчёт оправдываемости прогнозов по элементам и в целом;
- система обработки, анализа и отображения авиаметеорологической информации для применения провайдерами метеорологической информации.

Рекомендуем: Ремонт - Евроремонт офиса, екатеринбург

Погода Маслянино - сегодня

Время (UTC), дата Ветер
(°,м/с) 
Видим.   Явления Облачность Т
(°С)
Тd
(°С)
f(%) Тe
(°С)
Pmin
(гПа)
dP
(гПа)
Po
(мм)
O2
(г/м3)
Тmin Tmax R s Состояние
почвы
09 25.04.17 190 (Ю) 20000 м    8/3 600 м верхняя 
[Cu hum|Ci fib]
+15.7 +1.3 38 +16  1028.8  -0.4  754  287           
12 25.04.17 170 (Ю) 20000 м    4/0 верхняя 
[Ci fib]
+15.2 +0.6 37 +16  1028.5  -0.2  754  288    +16       
15 25.04.17 тихо ()   20000 м    ясно 
+6.1 +1.5 72 +6  1029.8  0.4  754  297           
18 25.04.17 тихо ()   20000 м    ясно 
+1.6 +0.2 90 +2  1029.8  -0.4  754  302           
21 25.04.17 тихо ()   20000 м    ясно 
-0.9 -1.1 99 -1  1028.9  -1.1  753  304           
00 26.04.17 220 (ЮЗ) 20000 м    10/0 верхняя 
[Ci fib]
-1.1 -1.1 100 -1  1028.7  -0.2  753  305  -2.2         
03 26.04.17 080 (В) 20000 м    3/0 верхняя 
[Ci fib]
+12.1 +3.4 55 +13  1025.8  -1.6  751  289           
06 26.04.17 090 (В) 20000 м    8/0 верхняя 
[Ci fib]
+19.7 +2.7 32 +21  1023.1  -2.1  750  281           
09 26.04.17 150 (ЮВ) 20000 м    10/0 верхняя 
[Ci fib]
+23.5 +0.6 22 +24  1020.4  -2.4  748  277           
12 26.04.17 150 (ЮВ) 20000 м    10/0 верхняя 
[Ci fib]
+23.2 +1.5 24 +23  1018.6  -1.7  747  277    +24.3       
15 26.04.17 280 (З) 20000 м    10/0 верхняя 
[Ci fib]
+11.8 +4.4 60 +13  1018.8  -0.7  746  288           
18 26.04.17 тихо ()   20000 м    ясно 
+5.9 +3.1 82 +6  1018.4  -0.9  746  294           
21 26.04.17 тихо ()   20000 м    ясно 
+2.2 +1.3 94 +2  1018  -0.7  745  298           
00 27.04.17 110 (В) 20000 м    6/0 верхняя 
[Ci fib]
+1.3 +1.1 99 +2  1017.8  -0.3  745  298  +0.4         
03 27.04.17 190 (Ю) 20000 м    4/0 верхняя 
[Ci fib]
+18.5 +4.1 38 +19  1015.4  -0.9  744  280           
06 27.04.17 200 (Ю) 8-11{12}  20000 м    3/0 верхняя 
[Ci fib]
+26.1 -0.5 17 +26  1013.4  -1.3  743  273           
09 27.04.17 210 (ЮЗ) 8-12{14}  20000 м    ясно 
+28.3 -5 11 +28  1011.7  -1.6  742  271           
12 27.04.17 220 (ЮЗ) 5{12}  20000 м    6/0 верхняя 
[Ci fib]
+26.8 -2 15 +27  1011.1  -0.7  741  272    +28.4       
15 27.04.17 260 (З) 20000 м    3/0 верхняя 
[Ci fib]
+17.5 +2.8 37 +18  1012.4  0.6  742  280           
18 27.04.17 тихо ()   20000 м    ясно 
+11.4 +4 60 +11  1014.4  1.4  743  287           
21 27.04.17 тихо ()   20000 м    ясно 
+8.5 +4 73 +9  1015.9  1.3  744  290           
00 28.04.17 тихо ()   20000 м    10/0 верхняя 
[Ci fib]
+6.9 +3.9 81 +7  1017.4  1.3  745  292  +6.3         
03 28.04.17 360 (С) 20000 м    10/0 средняя 
[Ac trans]
+16.2 +7.9 58 +18  1017.7  1.1  746  282           
06 28.04.17 330 (СЗ) 20000 м    10/0 средняя, верхняя 
[Ac trans|Ci fib]
+20.8 +8.6 45 +21  1017.1  -0.2  746  278           
09 28.04.17 330 (СЗ) 20000 м    10/4 600 м верхняя 
[Sc|Ci fib]
+21.6 +7.9 41 +22  1016.3  -0.8  745  277           
Время (UTC), дата Ветер
(°,м/с) 
Видим.   Явления Облачность Т
(°С)
Тd
(°С)
f(%) Тe
(°С)
Pmin
(гПа)
dP
(гПа)
Po
(мм)
O2
(г/м3)
Тmin Tmax R s Состояние
почвы

Для получения пояснительной информации подведите курсор к названию столбца.

ПОГОДА Маслянино - архив

Всё, что Вы хотите узнать о погоде Маслянино - удобно и подробно!

Выберите нужную дату (начиная с 1 января 2015* года) и нажмите кнопку "Найти".
Будут отображены архивные сводки погоды по пункту Маслянино, начиная с указанной даты.


Отображать данные в формате CSV (для использования в таблицах Excel)


Внимание! Наш архив погоды предназначен исключительно для личного некоммерческого использования в познавательных целях. Если Вам необходимы официальные справки о состоянии погоды (для производственных, юридических, коммерческих и т.п. целей), обращайтесь в органы Росгидромета.

*Примечание: данная дата относится к архиву по метеостанциям СССР (Россия, СНГ, Балтия).
Архив по метеостанциям Зарубежной Европы и Азии (кроме Китая) хранится 10 дней, по другим регионам земного шара (Китай, Африка, Америка, Австралия, Океания) - 1 день.

Маслянино - район местоположения метеостанции


Название, широта, долгота, высота метеостанции:
Маслянино 54.3°ш. 84.2°д. 198 м над ур. моря [Российская Федерация]

Дополнительная информация

В oтличие oт бoльшинства пoгoдных сайтoв мы публикуем пoдрoбную метеoинфoрмацию в детальнoм прoфессиoнальнoм фoрмате.

Характеристики температуры и влажнoсти вoздуха измеряются на высoте 2 м в тени вдали oт зданий и деревьев.
Скoрoсть ветра измеряется на высoте 10 м (на урoвне рoста челoвека скoрoсть ветра ниже в 1.5-2 раза). Если метеoстанция нахoдится в гoрoде или в лесу, тo скoрoсть ветра занижена на 2-4 м/с пo сравнению с oткрытым местoм. Скoрoсть ветра над акватoриями крупных рек и oзёр, а также на вершинах хoлмoв на 2-5 м/с выше, чем в oбычных услoвиях.
Атмoсфернoе давление в разных тoчках местнoсти мoжет значительнo oтличаться oт давления на метеoстанции, в зависимoсти oт услoвий рельефа (при пoдъёме на 10 м давление пoнижается примернo на 1 мм рт.ст.).